When you browse on this site, cookies collect data to enhance your experience and personalize the content and advertising you see.
Visit our Privacy Policy to learn more. By continuing to use the site, you agree to this use of cookies and data.
  • In Hungary
  • List of Countries
  • For 7 days
  • Water Temperature
  • Satellite Maps
  • Weather Map
  • News
  • Weather Widgets
  • user-avatar
    Login

    Hourly Weather Barisal

    Today, 22 April, Monday

    Time Temperature Precipitation Wind Pressure Humidity
    00:00 +30°C° 0 mm 4 mps 754 mmHg 62%
    01:00 +30°C° 0.3 mm 4 mps 754 mmHg 62%
    02:00 +29°C° 0.3 mm 4 mps 754 mmHg 62%
    03:00 +28°C° 0.3 mm 4 mps 753 mmHg 62%
    04:00 +28°C° 0.3 mm 3 mps 753 mmHg 62%
    05:00 +28°C° 0.3 mm 2 mps 754 mmHg 62%
    06:00 +28°C° 0 mm 2 mps 754 mmHg 66%
    07:00 +30°C° 0 mm 2 mps 754 mmHg 60%
    08:00 +31°C° 0 mm 2 mps 755 mmHg 54%
    09:00 +34°C° 0 mm 2 mps 755 mmHg 49%
    10:00 +36°C° 0 mm 2 mps 755 mmHg 42%
    11:00 +37°C° 0 mm 2 mps 755 mmHg 36%
    12:00 +39°C° 0 mm 1 mps 755 mmHg 31%
    13:00 +39°C° 0 mm 1 mps 754 mmHg 29%
    14:00 +40°C° 0 mm 1 mps 754 mmHg 28%
    15:00 +40°C° 0 mm 1 mps 753 mmHg 26%
    16:00 +39°C° 0 mm 2 mps 753 mmHg 28%
    17:00 +38°C° 0 mm 2 mps 753 mmHg 31%
    18:00 +37°C° 0 mm 2 mps 753 mmHg 33%
    19:00 +36°C° 0 mm 2 mps 753 mmHg 38%
    20:00 +35°C° 0 mm 2 mps 754 mmHg 44%
    21:00 +32°C° 0 mm 2 mps 754 mmHg 49%
    22:00 +32°C° 0 mm 2 mps 754 mmHg 53%
    23:00 +31°C° 0 mm 2 mps 754 mmHg 56%

    Tomorrow, 23 April, Tuesday

    Time Temperature Precipitation Wind Pressure Humidity
    00:00 +30°C° 0 mm 2 mps 754 mmHg 60%
    01:00 +30°C° 0 mm 2 mps 754 mmHg 60%
    02:00 +30°C° 0 mm 1 mps 754 mmHg 61%
    03:00 +29°C° 0 mm 1 mps 754 mmHg 62%
    04:00 +29°C° 0 mm 1 mps 754 mmHg 62%
    05:00 +29°C° 0 mm 1 mps 754 mmHg 62%
    06:00 +29°C° 0 mm 1 mps 754 mmHg 62%
    07:00 +31°C° 0 mm 1 mps 755 mmHg 54%
    08:00 +33°C° 0 mm 1 mps 755 mmHg 47%
    09:00 +35°C° 0 mm 1 mps 756 mmHg 39%
    10:00 +37°C° 0 mm 1 mps 756 mmHg 34%
    11:00 +40°C° 0 mm 1 mps 756 mmHg 30%
    12:00 +38°C° 0 mm 0 mps 756 mmHg 25%
    13:00 +41°C° 0 mm 1 mps 755 mmHg 24%
    14:00 +41°C° 0 mm 1 mps 754 mmHg 23%
    15:00 +41°C° 0 mm 2 mps 753 mmHg 22%
    16:00 +40°C° 0.1 mm 2 mps 753 mmHg 25%
    17:00 +39°C° 0.1 mm 2 mps 753 mmHg 28%
    18:00 +38°C° 0.1 mm 2 mps 753 mmHg 31%
    19:00 +36°C° 0 mm 3 mps 754 mmHg 35%
    20:00 +35°C° 0 mm 3 mps 754 mmHg 38%
    21:00 +34°C° 0 mm 3 mps 755 mmHg 42%
    22:00 +34°C° 0 mm 3 mps 755 mmHg 44%
    23:00 +34°C° 0 mm 3 mps 755 mmHg 45%

    Day after tomorrow, 24 April, Wednesday

    Time Temperature Precipitation Wind Pressure Humidity
    00:00 +34°C° 0 mm 3 mps 755 mmHg 47%
    01:00 +32°C° 0 mm 2 mps 755 mmHg 51%
    02:00 +31°C° 0 mm 1 mps 755 mmHg 55%
    03:00 +28°C° 0 mm 0 mps 754 mmHg 59%
    04:00 +28°C° 0 mm 0 mps 755 mmHg 59%
    05:00 +28°C° 0 mm 0 mps 755 mmHg 59%
    06:00 +30°C° 0 mm 1 mps 756 mmHg 59%
    07:00 +32°C° 0 mm 1 mps 756 mmHg 52%
    08:00 +34°C° 0 mm 1 mps 757 mmHg 44%
    09:00 +37°C° 0 mm 1 mps 757 mmHg 37%
    10:00 +39°C° 0 mm 1 mps 757 mmHg 33%
    11:00 +40°C° 0 mm 1 mps 757 mmHg 29%
    12:00 +42°C° 0 mm 1 mps 756 mmHg 25%
    13:00 +41°C° 0 mm 2 mps 755 mmHg 25%
    14:00 +41°C° 0 mm 2 mps 755 mmHg 25%
    15:00 +42°C° 0 mm 3 mps 754 mmHg 25%
    16:00 +41°C° 0 mm 4 mps 753 mmHg 26%
    17:00 +40°C° 0 mm 4 mps 753 mmHg 28%
    18:00 +38°C° 0 mm 4 mps 753 mmHg 29%
    19:00 +37°C° 0 mm 4 mps 754 mmHg 33%
    20:00 +36°C° 0 mm 4 mps 754 mmHg 37%
    21:00 +34°C° 0 mm 4 mps 755 mmHg 40%
    22:00 +34°C° 0 mm 4 mps 755 mmHg 45%
    23:00 +33°C° 0 mm 3 mps 755 mmHg 51%

    25 April, Thursday

    Time Temperature Precipitation Wind Pressure Humidity
    00:00 +31°C° 0 mm 3 mps 755 mmHg 56%
    01:00 +31°C° 0 mm 3 mps 755 mmHg 59%
    02:00 +30°C° 0 mm 3 mps 754 mmHg 61%
    03:00 +30°C° 0 mm 3 mps 754 mmHg 64%
    04:00 +30°C° 0 mm 2 mps 754 mmHg 67%
    05:00 +29°C° 0 mm 1 mps 755 mmHg 69%
    06:00 +29°C° 0 mm 1 mps 755 mmHg 71%
    07:00 +31°C° 0 mm 1 mps 756 mmHg 61%
    08:00 +34°C° 0 mm 1 mps 756 mmHg 52%
    09:00 +36°C° 0 mm 1 mps 757 mmHg 42%
    10:00 +38°C° 0 mm 2 mps 756 mmHg 36%
    11:00 +40°C° 0 mm 2 mps 756 mmHg 30%
    12:00 +42°C° 0 mm 2 mps 756 mmHg 24%
    13:00 +43°C° 0 mm 3 mps 755 mmHg 24%
    14:00 +43°C° 0 mm 4 mps 754 mmHg 24%
    15:00 +43°C° 0 mm 4 mps 753 mmHg 24%
    16:00 +42°C° 0 mm 5 mps 753 mmHg 27%
    17:00 +40°C° 0 mm 5 mps 753 mmHg 29%
    18:00 +39°C° 0 mm 5 mps 753 mmHg 32%
    19:00 +37°C° 0 mm 5 mps 753 mmHg 37%
    20:00 +35°C° 0 mm 4 mps 754 mmHg 42%
    21:00 +34°C° 0 mm 4 mps 754 mmHg 48%
    22:00 +33°C° 0 mm 3 mps 754 mmHg 51%
    23:00 +33°C° 0 mm 3 mps 754 mmHg 54%

    26 April, Friday

    Time Temperature Precipitation Wind Pressure Humidity
    00:00 +31°C° 0 mm 3 mps 753 mmHg 57%
    01:00 +31°C° 0 mm 3 mps 753 mmHg 59%
    02:00 +30°C° 0 mm 3 mps 753 mmHg 60%
    03:00 +30°C° 0 mm 3 mps 752 mmHg 61%
    04:00 +30°C° 0 mm 2 mps 753 mmHg 64%
    05:00 +29°C° 0 mm 1 mps 753 mmHg 66%
    06:00 +29°C° 0 mm 1 mps 754 mmHg 69%
    07:00 +32°C° 0 mm 1 mps 754 mmHg 59%
    08:00 +35°C° 0 mm 2 mps 755 mmHg 50%
    09:00 +37°C° 0 mm 3 mps 756 mmHg 40%
    10:00 +39°C° 0 mm 3 mps 755 mmHg 34%
    11:00 +42°C° 0 mm 3 mps 755 mmHg 28%
    12:00 +44°C° 0 mm 4 mps 754 mmHg 22%
    13:00 +44°C° 0 mm 4 mps 754 mmHg 22%
    14:00 +45°C° 0 mm 5 mps 753 mmHg 21%
    15:00 +45°C° 0 mm 5 mps 752 mmHg 21%
    16:00 +43°C° 0 mm 5 mps 752 mmHg 24%
    17:00 +41°C° 0 mm 6 mps 752 mmHg 28%
    18:00 +39°C° 0 mm 6 mps 752 mmHg 31%
    19:00 +37°C° 0 mm 5 mps 753 mmHg 38%
    20:00 +35°C° 0 mm 5 mps 753 mmHg 46%
    21:00 +34°C° 0 mm 5 mps 754 mmHg 53%
    22:00 +33°C° 0 mm 4 mps 754 mmHg 57%
    23:00 +33°C° 0 mm 4 mps 753 mmHg 60%

    27 April, Saturday

    Time Temperature Precipitation Wind Pressure Humidity
    00:00 +32°C° 0 mm 4 mps 753 mmHg 64%
    01:00 +32°C° 0 mm 4 mps 753 mmHg 66%
    02:00 +30°C° 0 mm 4 mps 753 mmHg 68%
    03:00 +30°C° 0 mm 4 mps 752 mmHg 71%
    04:00 +30°C° 0 mm 3 mps 753 mmHg 73%
    05:00 +30°C° 0 mm 3 mps 753 mmHg 75%
    06:00 +30°C° 0 mm 2 mps 754 mmHg 77%
    07:00 +33°C° 0 mm 3 mps 754 mmHg 65%
    08:00 +35°C° 0 mm 3 mps 755 mmHg 54%
    09:00 +38°C° 0 mm 4 mps 755 mmHg 43%
    10:00 +40°C° 0 mm 5 mps 755 mmHg 36%
    11:00 +42°C° 0 mm 5 mps 754 mmHg 30%
    12:00 +45°C° 0 mm 5 mps 754 mmHg 24%
    13:00 +45°C° 0 mm 5 mps 753 mmHg 23%
    14:00 +45°C° 0 mm 6 mps 752 mmHg 23%
    15:00 +45°C° 0 mm 6 mps 752 mmHg 23%
    16:00 +42°C° 0 mm 6 mps 752 mmHg 29%
    17:00 +40°C° 0 mm 6 mps 752 mmHg 35%
    18:00 +38°C° 0 mm 6 mps 752 mmHg 41%
    19:00 +36°C° 0 mm 6 mps 752 mmHg 51%
    20:00 +34°C° 0 mm 6 mps 753 mmHg 61%
    21:00 +33°C° 0 mm 6 mps 753 mmHg 70%
    22:00 +32°C° 0 mm 6 mps 753 mmHg 73%
    23:00 +32°C° 0 mm 6 mps 753 mmHg 75%
    Show more